Starlink 3343

operational
NORAD ID: 50822 Int'l Des: 2022-001 Owner: SPXS Country: US Constellation: starlink
LEOCIRCULAR

About Starlink 3343

Description loading...

Live Position

Loading 3D Globe...

Upcoming Passes

Altitude History

Altitude vs Time

uPlot chart will show altitude changes over time

Two-Line Element Set

1 50822U 22001V 25302.52162941 .00000241 00000-0 33237-4 0 9993
2 50822 53.2187 37.9557 0001198 87.4398 272.6732 15.08838406210600
Epoch: Oct 29, 2025 • Age: 6 hours

Current Status

Altitude 540.1 km
Velocity 7.59 km/s
Sub-Earth Point 4.59°N, 95.68°W
Launch Date Jan 6, 2022
Age 3.8 years
Type internet

Technical Details

Classification Payload
Mass 297.00 kg
Dry Mass 275.00 kg
Total Mass 297.00 kg
Length 0.20 m
Diameter 2.80 m
Span 9.00 m
Shape Box + pan
Manufacturer SPXS
Bus Type Starlink
Phase Status In Orbit
Owner/State SPXS/US

Large Constellations

Loading constellations...